Time,TemperatureF,DewpointF,PressureIn,WindDirection,WindDirectionDegrees,WindSpeedMPH,WindSpeedGustMPH,Humidity,HourlyPrecipIn,Conditions,Clouds,dailyrainin,SolarRadiationWatts/m^2,SoftwareType,DateUTC
2013-03-29 00:03:00,33.0,10.0,-100.00,South,189,3.0,5.0,38,0.00,,,-99.99,0.000000,,2013-03-29 05:03:00,
2013-03-29 00:12:00,33.0,10.0,-100.00,South,189,3.0,5.0,38,0.00,,,-99.99,0.000000,,2013-03-29 05:12:00,
2013-03-29 00:33:00,30.0,11.0,-100.00,South,188,4.0,6.0,45,0.00,,,-99.99,0.000000,,2013-03-29 05:33:00,
2013-03-29 00:43:00,30.0,11.0,-100.00,South,188,4.0,6.0,45,0.00,,,-99.99,0.000000,,2013-03-29 05:43:00,
2013-03-29 00:52:00,30.0,11.0,-100.00,South,188,4.0,6.0,45,0.00,,,-99.99,0.000000,,2013-03-29 05:52:00,
2013-03-29 01:02:00,30.0,11.0,-100.00,South,188,4.0,6.0,45,0.00,,,-99.99,0.000000,,2013-03-29 06:02:00,
2013-03-29 01:12:00,30.0,11.0,-100.00,South,188,4.0,6.0,45,0.00,,,-99.99,0.000000,,2013-03-29 06:12:00,
2013-03-29 01:42:00,29.0,10.0,-100.00,SW,231,2.0,6.0,45,0.00,,,-99.99,0.000000,,2013-03-29 06:42:00,
2013-03-29 01:52:00,29.0,10.0,-100.00,SW,231,2.0,6.0,45,0.00,,,-99.99,0.000000,,2013-03-29 06:52:00,
2013-03-29 02:03:00,29.0,10.0,-100.00,SW,231,2.0,6.0,45,0.00,,,-99.99,0.000000,,2013-03-29 07:03:00,
2013-03-29 02:12:00,29.0,10.0,-100.00,SW,231,2.0,6.0,45,0.00,,,-99.99,0.000000,,2013-03-29 07:12:00,
2013-03-29 02:32:00,30.0,10.0,-100.00,SSW,208,3.0,5.0,42,0.00,,,-99.99,0.000000,,2013-03-29 07:32:00,
2013-03-29 02:42:00,30.0,10.0,-100.00,SSW,208,3.0,5.0,42,0.00,,,-99.99,0.000000,,2013-03-29 07:42:00,
2013-03-29 02:52:00,30.0,10.0,-100.00,SSW,208,3.0,5.0,42,0.00,,,-99.99,0.000000,,2013-03-29 07:52:00,
2013-03-29 03:02:00,30.0,10.0,-100.00,SSW,208,3.0,5.0,42,0.00,,,-99.99,0.000000,,2013-03-29 08:02:00,
2013-03-29 03:12:00,30.0,10.0,-100.00,SSW,208,3.0,5.0,42,0.00,,,-99.99,0.000000,,2013-03-29 08:12:00,
2013-03-29 03:13:00,27.0,11.0,-100.00,SW,216,3.0,7.0,51,0.00,,,-99.99,0.000000,,2013-03-29 08:13:00,
2013-03-29 03:32:00,27.0,11.0,-100.00,SW,216,3.0,7.0,51,0.00,,,-99.99,0.000000,,2013-03-29 08:32:00,
2013-03-29 03:42:00,27.0,11.0,-100.00,SW,216,3.0,7.0,51,0.00,,,-99.99,0.000000,,2013-03-29 08:42:00,
2013-03-29 03:53:00,27.0,11.0,-100.00,SW,216,3.0,7.0,51,0.00,,,-99.99,0.000000,,2013-03-29 08:53:00,
2013-03-29 04:02:00,27.0,11.0,-100.00,SW,216,3.0,7.0,51,0.00,,,-99.99,0.000000,,2013-03-29 09:02:00,
2013-03-29 04:43:00,27.0,11.0,-100.00,SSW,213,3.0,7.0,51,0.00,,,-99.99,0.000000,,2013-03-29 09:43:00,
2013-03-29 04:52:00,27.0,11.0,-100.00,SSW,213,3.0,7.0,51,0.00,,,-99.99,0.000000,,2013-03-29 09:52:00,
2013-03-29 05:03:00,27.0,11.0,-100.00,SSW,213,3.0,7.0,51,0.00,,,-99.99,0.000000,,2013-03-29 10:03:00,
2013-03-29 05:12:00,27.0,11.0,-100.00,SSW,213,3.0,7.0,51,0.00,,,-99.99,0.000000,,2013-03-29 10:12:00,
2013-03-29 05:33:00,26.0,12.0,-100.00,SW,219,3.0,5.0,54,0.00,,,-99.99,0.000000,,2013-03-29 10:33:00,
2013-03-29 05:42:00,26.0,12.0,-100.00,SW,219,3.0,5.0,54,0.00,,,-99.99,0.000000,,2013-03-29 10:42:00,
2013-03-29 05:53:00,26.0,12.0,-100.00,SW,219,3.0,5.0,54,0.00,,,-99.99,0.000000,,2013-03-29 10:53:00,
2013-03-29 06:03:00,26.0,12.0,-100.00,SW,219,3.0,5.0,54,0.00,,,-99.99,0.000000,,2013-03-29 11:03:00,
2013-03-29 06:12:00,26.0,12.0,-100.00,SW,219,3.0,5.0,54,0.00,,,-99.99,0.000000,,2013-03-29 11:12:00,
2013-03-29 06:33:00,24.0,12.0,-100.00,SW,216,3.0,7.0,59,0.00,,,-99.99,0.000000,,2013-03-29 11:33:00,
2013-03-29 06:43:00,24.0,12.0,-100.00,SW,216,3.0,7.0,59,0.00,,,-99.99,0.000000,,2013-03-29 11:43:00,
2013-03-29 06:53:00,24.0,12.0,-100.00,SW,216,3.0,7.0,59,0.00,,,-99.99,0.000000,,2013-03-29 11:53:00,
2013-03-29 07:03:00,24.0,12.0,-100.00,SW,216,3.0,7.0,59,0.00,,,-99.99,0.000000,,2013-03-29 12:03:00,
2013-03-29 07:12:00,24.0,12.0,-100.00,SW,216,3.0,7.0,59,0.00,,,-99.99,0.000000,,2013-03-29 12:12:00,
2013-03-29 07:33:00,24.0,13.0,-100.00,SSW,213,3.0,6.0,62,0.00,,,-99.99,5.000000,,2013-03-29 12:33:00,
2013-03-29 07:43:00,24.0,13.0,-100.00,SSW,213,3.0,6.0,62,0.00,,,-99.99,5.000000,,2013-03-29 12:43:00,
2013-03-29 07:53:00,24.0,13.0,-100.00,SSW,213,3.0,6.0,62,0.00,,,-99.99,5.000000,,2013-03-29 12:53:00,
2013-03-29 08:03:00,24.0,13.0,-100.00,SSW,213,3.0,6.0,62,0.00,,,-99.99,5.000000,,2013-03-29 13:03:00,
2013-03-29 08:12:00,24.0,13.0,-100.00,SSW,213,3.0,6.0,62,0.00,,,-99.99,5.000000,,2013-03-29 13:12:00,
2013-03-29 08:33:00,31.0,15.0,-100.00,SSW,205,4.0,6.0,51,0.00,,,-99.99,101.000000,,2013-03-29 13:33:00,
2013-03-29 08:43:00,31.0,15.0,-100.00,SSW,205,4.0,6.0,51,0.00,,,-99.99,101.000000,,2013-03-29 13:43:00,
2013-03-29 08:53:00,31.0,15.0,-100.00,SSW,205,4.0,6.0,51,0.00,,,-99.99,101.000000,,2013-03-29 13:53:00,
2013-03-29 09:03:00,31.0,15.0,-100.00,SSW,205,4.0,6.0,51,0.00,,,-99.99,101.000000,,2013-03-29 14:03:00,
2013-03-29 09:12:00,31.0,15.0,-100.00,SSW,205,4.0,6.0,51,0.00,,,-99.99,101.000000,,2013-03-29 14:12:00,
2013-03-29 09:33:00,39.0,17.0,-100.00,SW,221,3.0,7.0,40,0.00,,,-99.99,287.000000,,2013-03-29 14:33:00,
2013-03-29 09:42:00,39.0,17.0,-100.00,SW,221,3.0,7.0,40,0.00,,,-99.99,287.000000,,2013-03-29 14:42:00,
2013-03-29 09:53:00,39.0,17.0,-100.00,SW,221,3.0,7.0,40,0.00,,,-99.99,287.000000,,2013-03-29 14:53:00,
2013-03-29 10:02:00,39.0,17.0,-100.00,SW,221,3.0,7.0,40,0.00,,,-99.99,287.000000,,2013-03-29 15:02:00,
2013-03-29 10:12:00,39.0,17.0,-100.00,SW,221,3.0,7.0,40,0.00,,,-99.99,287.000000,,2013-03-29 15:12:00,
2013-03-29 10:13:00,45.0,16.0,-100.00,SSW,192,4.0,7.0,31,0.00,,,-99.99,440.000000,,2013-03-29 15:13:00,
2013-03-29 10:33:00,45.0,16.0,-100.00,SSW,192,4.0,7.0,31,0.00,,,-99.99,440.000000,,2013-03-29 15:33:00,
2013-03-29 10:43:00,45.0,16.0,-100.00,SSW,192,4.0,7.0,31,0.00,,,-99.99,440.000000,,2013-03-29 15:43:00,
2013-03-29 10:53:00,45.0,16.0,-100.00,SSW,192,4.0,7.0,31,0.00,,,-99.99,440.000000,,2013-03-29 15:53:00,
2013-03-29 11:03:00,45.0,16.0,-100.00,SSW,192,4.0,7.0,31,0.00,,,-99.99,440.000000,,2013-03-29 16:03:00,
2013-03-29 11:33:00,51.0,18.0,-100.00,SSE,167,3.0,8.0,27,0.00,,,-99.99,620.000000,,2013-03-29 16:33:00,
2013-03-29 11:43:00,51.0,18.0,-100.00,SSE,167,3.0,8.0,27,0.00,,,-99.99,620.000000,,2013-03-29 16:43:00,
2013-03-29 11:53:00,51.0,18.0,-100.00,SSE,167,3.0,8.0,27,0.00,,,-99.99,620.000000,,2013-03-29 16:53:00,
2013-03-29 12:03:00,51.0,18.0,-100.00,SSE,167,3.0,8.0,27,0.00,,,-99.99,620.000000,,2013-03-29 17:03:00,
2013-03-29 12:12:00,51.0,18.0,-100.00,SSE,167,3.0,8.0,27,0.00,,,-99.99,620.000000,,2013-03-29 17:12:00,
2013-03-29 12:43:00,55.0,19.0,-100.00,SW,232,3.0,11.0,24,0.00,,,-99.99,769.000000,,2013-03-29 17:43:00,
2013-03-29 12:53:00,55.0,19.0,-100.00,SW,232,3.0,11.0,24,0.00,,,-99.99,769.000000,,2013-03-29 17:53:00,
2013-03-29 13:02:00,55.0,19.0,-100.00,SW,232,3.0,11.0,24,0.00,,,-99.99,769.000000,,2013-03-29 18:02:00,
2013-03-29 13:12:00,55.0,19.0,-100.00,SW,232,3.0,11.0,24,0.00,,,-99.99,769.000000,,2013-03-29 18:12:00,
2013-03-29 13:43:00,54.0,21.0,-100.00,SSW,213,5.0,10.0,27,0.00,,,0.00,774.000000,,2013-03-29 18:43:00,
2013-03-29 13:53:00,54.0,21.0,-100.00,SSW,213,5.0,10.0,27,0.00,,,0.00,774.000000,,2013-03-29 18:53:00,
2013-03-29 14:02:00,54.0,21.0,-100.00,SSW,213,5.0,10.0,27,0.00,,,0.00,774.000000,,2013-03-29 19:02:00,
2013-03-29 14:12:00,54.0,21.0,-100.00,SSW,213,5.0,10.0,27,0.00,,,0.00,774.000000,,2013-03-29 19:12:00,
2013-03-29 14:33:00,53.0,20.0,-100.00,West,266,6.0,15.0,27,0.00,,,0.00,747.000000,,2013-03-29 19:33:00,
2013-03-29 14:43:00,53.0,20.0,-100.00,West,266,6.0,15.0,27,0.00,,,0.00,747.000000,,2013-03-29 19:43:00,
2013-03-29 14:53:00,53.0,20.0,-100.00,West,266,6.0,15.0,27,0.00,,,0.00,747.000000,,2013-03-29 19:53:00,
2013-03-29 15:02:00,53.0,20.0,-100.00,West,266,6.0,15.0,27,0.00,,,0.00,747.000000,,2013-03-29 20:02:00,
2013-03-29 15:12:00,53.0,20.0,-100.00,West,266,6.0,15.0,27,0.00,,,0.00,747.000000,,2013-03-29 20:12:00,
2013-03-29 15:42:00,54.0,21.0,-100.00,WSW,255,5.0,13.0,27,0.00,,,0.00,716.000000,,2013-03-29 20:42:00,
2013-03-29 15:52:00,54.0,21.0,-100.00,WSW,255,5.0,13.0,27,0.00,,,0.00,716.000000,,2013-03-29 20:52:00,
2013-03-29 16:02:00,54.0,21.0,-100.00,WSW,255,5.0,13.0,27,0.00,,,0.00,716.000000,,2013-03-29 21:02:00,
2013-03-29 16:12:00,54.0,21.0,-100.00,WSW,255,5.0,13.0,27,0.00,,,0.00,716.000000,,2013-03-29 21:12:00,
2013-03-29 16:43:00,55.0,22.0,-100.00,West,259,4.0,14.0,27,0.00,,,0.00,589.000000,,2013-03-29 21:43:00,
2013-03-29 16:53:00,55.0,22.0,-100.00,West,259,4.0,14.0,27,0.00,,,0.00,589.000000,,2013-03-29 21:53:00,
2013-03-29 17:03:00,55.0,22.0,-100.00,West,259,4.0,14.0,27,0.00,,,0.00,589.000000,,2013-03-29 22:03:00,
2013-03-29 17:12:00,55.0,22.0,-100.00,West,259,4.0,14.0,27,0.00,,,0.00,589.000000,,2013-03-29 22:12:00,
2013-03-29 17:34:00,53.0,21.0,-100.00,SW,228,4.0,12.0,28,0.00,,,0.00,434.000000,,2013-03-29 22:34:00,
2013-03-29 17:43:00,53.0,21.0,-100.00,SW,228,4.0,12.0,28,0.00,,,0.00,434.000000,,2013-03-29 22:43:00,
2013-03-29 17:54:00,53.0,21.0,-100.00,SW,228,4.0,12.0,28,0.00,,,0.00,434.000000,,2013-03-29 22:54:00,
2013-03-29 18:03:00,53.0,21.0,-100.00,SW,228,4.0,12.0,28,0.00,,,0.00,434.000000,,2013-03-29 23:03:00,
2013-03-29 18:12:00,53.0,21.0,-100.00,SW,228,4.0,12.0,28,0.00,,,0.00,434.000000,,2013-03-29 23:12:00,
2013-03-29 18:43:00,49.0,22.0,-100.00,SW,236,4.0,11.0,34,0.00,,,0.00,210.000000,,2013-03-29 23:43:00,
2013-03-29 18:53:00,49.0,22.0,-100.00,SW,236,4.0,11.0,34,0.00,,,0.00,210.000000,,2013-03-29 23:53:00,
2013-03-29 19:03:00,49.0,22.0,-100.00,SW,236,4.0,11.0,34,0.00,,,0.00,210.000000,,2013-03-30 00:03:00,
2013-03-29 19:12:00,49.0,22.0,-100.00,SW,236,4.0,11.0,34,0.00,,,0.00,210.000000,,2013-03-30 00:12:00,
2013-03-29 19:33:00,44.0,24.0,-100.00,SSW,213,2.0,9.0,45,0.00,,,-99.99,38.000000,,2013-03-30 00:33:00,
2013-03-29 19:43:00,44.0,24.0,-100.00,SSW,213,2.0,9.0,45,0.00,,,-99.99,38.000000,,2013-03-30 00:43:00,
2013-03-29 19:53:00,44.0,24.0,-100.00,SSW,213,2.0,9.0,45,0.00,,,-99.99,38.000000,,2013-03-30 00:53:00,
2013-03-29 20:02:00,44.0,24.0,-100.00,SSW,213,2.0,9.0,45,0.00,,,-99.99,38.000000,,2013-03-30 01:02:00,
2013-03-29 20:12:00,44.0,24.0,-100.00,SSW,213,2.0,9.0,45,0.00,,,-99.99,38.000000,,2013-03-30 01:12:00,
2013-03-29 20:33:00,40.0,26.0,-100.00,South,190,2.0,6.0,56,0.00,,,0.00,5.000000,,2013-03-30 01:33:00,
2013-03-29 20:43:00,40.0,26.0,-100.00,South,190,2.0,6.0,56,0.00,,,0.00,5.000000,,2013-03-30 01:43:00,
2013-03-29 20:53:00,40.0,26.0,-100.00,South,190,2.0,6.0,56,0.00,,,0.00,5.000000,,2013-03-30 01:53:00,
2013-03-29 21:03:00,40.0,26.0,-100.00,South,190,2.0,6.0,56,0.00,,,0.00,5.000000,,2013-03-30 02:03:00,
2013-03-29 21:12:00,40.0,26.0,-100.00,South,190,2.0,6.0,56,0.00,,,0.00,5.000000,,2013-03-30 02:12:00,
2013-03-29 21:43:00,39.0,24.0,-100.00,South,177,4.0,6.0,55,0.00,,,0.00,0.000000,,2013-03-30 02:43:00,
2013-03-29 21:53:00,39.0,24.0,-100.00,South,177,4.0,6.0,55,0.00,,,0.00,0.000000,,2013-03-30 02:53:00,
2013-03-29 22:02:00,39.0,24.0,-100.00,South,177,4.0,6.0,55,0.00,,,0.00,0.000000,,2013-03-30 03:02:00,
2013-03-29 22:12:00,39.0,24.0,-100.00,South,177,4.0,6.0,55,0.00,,,0.00,0.000000,,2013-03-30 03:12:00,
2013-03-29 22:43:00,37.0,24.0,-100.00,South,174,5.0,8.0,60,0.00,,,0.00,1.000000,,2013-03-30 03:43:00,
2013-03-29 22:53:00,37.0,24.0,-100.00,South,174,5.0,8.0,60,0.00,,,0.00,1.000000,,2013-03-30 03:53:00,
2013-03-29 23:02:00,37.0,24.0,-100.00,South,174,5.0,8.0,60,0.00,,,0.00,1.000000,,2013-03-30 04:02:00,
2013-03-29 23:12:00,37.0,24.0,-100.00,South,174,5.0,8.0,60,0.00,,,0.00,1.000000,,2013-03-30 04:12:00,
2013-03-29 23:33:00,36.0,26.0,-100.00,South,180,6.0,9.0,68,0.00,,,0.00,1.000000,,2013-03-30 04:33:00,
2013-03-29 23:43:00,36.0,26.0,-100.00,South,180,6.0,9.0,68,0.00,,,0.00,1.000000,,2013-03-30 04:43:00,
2013-03-29 23:53:00,36.0,26.0,-100.00,South,180,6.0,9.0,68,0.00,,,0.00,1.000000,,2013-03-30 04:53:00,